This is the latest recevied weather packets stored in our database for station/object KC3BHK-2. If no packets are shown the sender has not sent any weather packets the latest 10 day(s).
| Time | Temp. | Humidity | Pressure | Rain* | Wind** | Luminosity | Snow |
|---|---|---|---|---|---|---|---|
| 1777934967 | 23.33° C | - | - | 0 mm | 3.58 m/s, 169° | - | - |
| 1777934662 | 23.89° C | - | - | 0 mm | 2.24 m/s, 198° | - | - |
| 1777934355 | 25.56° C | - | - | 0 mm | 5.36 m/s, 180° | - | - |
| 1777934050 | 23.89° C | - | - | 0 mm | 3.58 m/s, 146° | - | - |
| 1777933441 | 24.44° C | - | - | 0 mm | 4.02 m/s, 148° | - | - |
| 1777933136 | 24.44° C | - | - | 0 mm | 3.13 m/s, 191° | - | - |
| 1777932832 | 24.44° C | - | - | 0 mm | 2.68 m/s, 203° | - | - |
| 1777932524 | 25° C | - | - | 0 mm | 3.58 m/s, 203° | - | - |
| 1777931915 | 26.67° C | - | - | 0 mm | 2.24 m/s, 183° | - | - |
| 1777931610 | 26.11° C | - | - | 0 mm | 1.79 m/s, 215° | - | - |
| 1777931306 | 25.56° C | - | - | 0 mm | 3.13 m/s, 129° | - | - |
| 1777931001 | 26.11° C | - | - | 0 mm | 2.68 m/s, 128° | - | - |
| 1777930693 | 23.89° C | - | - | 0 mm | 3.58 m/s, 172° | - | - |
| 1777930389 | 23.89° C | - | - | 0 mm | 4.02 m/s, 138° | - | - |
| 1777930084 | 24.44° C | - | - | 0 mm | 3.13 m/s, 146° | - | - |
| 1777929779 | 24.44° C | - | - | 0 mm | 2.68 m/s, 163° | - | - |
| 1777929475 | 23.89° C | - | - | 0 mm | 3.58 m/s, 203° | - | - |
| 1777929170 | 23.89° C | - | - | 0 mm | 2.68 m/s, 177° | - | - |
| 1777928863 | 23.33° C | - | - | 0 mm | 3.58 m/s, 163° | - | - |
| 1777928558 | 24.44° C | - | - | 0 mm | 3.58 m/s, 208° | - | - |
| 1777928253 | 25° C | - | - | 0 mm | 4.02 m/s, 181° | - | - |
| 1777927949 | 25.56° C | - | - | 0 mm | 3.58 m/s, 197° | - | - |
| 1777927644 | 25.56° C | - | - | 0 mm | 2.24 m/s, 198° | - | - |
| 1777927340 | 25° C | - | - | 0 mm | 5.81 m/s, 180° | - | - |
| 1777927032 | 25.56° C | - | - | 0 mm | 5.81 m/s, 207° | - | - |
* Rain latest hour (hover to see other rain measurements)
** Current wind speed in m/s (hover to see current wind gust speed)